Tracking 19279 objects as of 12-Nov-2018
HD Live streaming from Space Station
objects crossing your sky now

LANDSAT 4

Track LANDSAT 4 now!
10-day predictions
LANDSAT 4 is classified as:


NORAD ID: 13367
Int'l Code: 1982-072A
Perigee: 515.4 km
Apogee: 531.5 km
Inclination: 98.2 °
Period: 95.0 minutes
Semi major axis: 6894 km
RCS: 7.754 m2 (large)
Launch date: July 16, 1982
Source: United States (US)
Launch site: AIR FORCE WESTERN TEST RANGE (AFWTR)
aabbcc
Your satellite tracking list
Your tracking list is empty




NASA's NSSDC Master Catalog

Two Line Element Set (TLE):
1 13367U 82072A   18315.80352751  .00000535  00000-0  31464-4 0  9993
2 13367  98.2441 168.5362 0011720 256.5050 232.5316 15.16539144962700
Source of the keplerian elements: AFSPC